User: anonymous   Login
Location: Grand Lay
(47.3253°N, 0.9468°E)
Time: 18:02:23
(UTC+00:00)
Language:

BREEZE-M DEB (TANK) - Orbit

View from above orbital plane
View from above orbital plane
View from above satellite
View from above satellite

Ground track
Ground track

The orbit is defined by the following mean orbital elements,

1 29271U          26068.16995669 +.00000000 +00000-0 +92957-3 0 00002
2 29271  49.5529  19.0064 5182907 201.2821 125.4307  5.32972568    04
Epoch (UTC): 09 March 2026 04:04:44
Eccentricity: 0.5182907
inclination: 49.5529°
perigee height: 291 km
apogee height: 14641 km
right ascension of ascending node: 19.0064°
argument of perigee: 201.2821°
revolutions per day: 5.32972568
mean anomaly at epoch: 125.4307°

The dashed part of the orbit path shows where the satellite is in the earth's shadow,  

DLR